Temperature
16 16 16 17 19 20 20 20 19 18 18 16 16 17 19 19 19 17 13 13 13 13 12 12 12 12 12 12 12 13 13 13 13 13 13 13 13 13 13 14 14 14 14 14 14 14 14 14 14
16 16 16 18 20 20 20 19 18 18 16 14 14 15 17 16 13 12 12 12 12 12 12 12 12 12 12 12 12 12 12 13 13 13 13 13 13 13 13 14 14 14 14 14 14 14 14 14 14
16 16 17 19 19 20 20 18 18 16 14 14 15 14 15 14 12 12 12 12 12 12 12 12 12 12 12 12 12 12 12 12 12 13 13 13 13 13 13 13 13 14 14 14 14 14 14 14 14
15 16 17 19 19 18 18 18 16 16 14 14 14 15 12 11 11 12 12 12 11 11 11 11 11 11 11 12 12 12 12 12 12 12 12 13 13 13 13 13 13 13 13 13 14 14 14 14 14
15 17 18 18 18 17 17 16 15 16 16 14 14 15 13 11 12 12 12 12 11 11 11 11 11 11 11 11 12 12 12 12 12 12 12 12 12 13 13 13 13 13 13 13 13 13 13 13 13
15 17 18 18 18 17 16 14 14 16 15 13 13 14 12 11 11 12 11 11 11 11 11 11 11 11 11 11 11 11 11 12 12 12 12 12 12 12 12 12 12 13 13 13 13 13 13 13 13
16 17 18 18 17 16 16 13 14 15 15 13 13 14 12 11 11 11 11 11 10 10 10 10 10 10 10 10 11 11 11 11 11 11 11 12 12 12 12 12 12 12 12 12 12 12 13 13 13
14 16 16 16 16 16 15 12 12 13 14 11 11 13 12 10 11 10 10 10 10 10 10 10 10 10 10 10 11 11 11 11 11 11 11 11 11 11 12 12 12 12 12 12 12 12 12 12 12
13 16 16 16 16 15 13 13 11 10 11 10 10 10 10 10 10 10 10 10 10 10 10 10 10 10 10 10 10 10 11 11 11 11 11 11 11 11 11 11 11 11 11 11 11 11 12 12 12
14 15 15 15 15 14 13 12 12 11 11 10 9 9 10 10 10 10 10 10 10 10 10 10 10 10 10 10 10 10 10 10 10 10 10 10 10 10 10 11 11 11 11 11 11 11 11 11 11
13 14 13 12 11 12 12 11 10 12 12 11 10 9 9 9 9 9 9 9 9 9 9 9 9 9 9 9 10 10 10 10 10 10 10 10 10 10 10 10 10 10 10 10 10 10 10 10 10
11 11 11 11 10 10 11 10 10 10 11 10 9 9 9 9 9 9 9 9 9 9 9 9 9 9 9 9 9 9 9 9 10 10 10 10 10 10 10 10 10 10 10 10 10 10 10 10 10
11 10 9 9 8 9 9 9 10 9 9 9 9 8 8 9 9 9 8 8 8 8 8 8 8 8 8 9 9 9 9 9 9 9 9 9 9 9 9 9 9 9 9 9 9 9 9 9 10
10 10 9 9 9 8 9 9 8 8 8 7 8 8 8 8 8 8 8 8 8 8 8 8 8 8 8 8 8 8 8 8 8 9 8 8 8 9 9 9 9 9 9 9 9 9 9 9 9
9 10 10 9 9 8 9 10 9 8 7 7 7 7 7 7 7 7 7 7 8 8 7 7 7 7 7 8 8 8 8 8 8 8 8 8 8 8 8 8 8 8 8 8 8 8 8 8 8
10 11 11 10 9 8 9 12 10 7 7 7 7 6 6 6 7 7 7 7 7 7 7 7 7 7 7 7 7 7 7 7 7 7 7 7 7 7 7 8 8 8 8 8 8 8 8 8 8
11 12 11 10 8 9 9 11 9 7 7 7 6 6 5 5 6 6 6 6 7 7 6 7 7 6 6 6 7 7 7 7 7 7 7 7 7 7 7 7 7 7 7 7 7 7 7 7 7
11 11 11 10 8 8 9 9 9 7 6 7 6 5 5 5 5 5 6 6 6 6 6 6 6 6 6 6 6 6 6 6 6 6 6 6 6 6 6 6 6 7 7 7 7 7 7 7 7
10 10 10 10 7 8 8 9 9 7 6 6 6 5 5 4 4 5 5 6 6 6 6 6 6 5 5 5 5 6 6 6 6 6 6 6 6 6 6 6 6 6 6 6 6 6 6 6 6
9 9 9 8 6 7 7 8 8 7 6 5 5 5 4 4 4 4 4 5 5 5 5 5 5 5 5 5 5 5 5 5 5 5 5 5 5 5 5 5 5 5 5 5 5 5 5 5 5
8 8 8 8 6 6 6 9 8 7 6 5 4 4 3 3 3 3 4 4 4 4 4 4 5 5 5 5 5 5 5 5 5 5 5 5 5 5 5 5 5 5 5 5 5 5 5 5 5
8 7 7 6 7 8 7 9 9 7 6 5 4 3 3 3 3 3 3 3 4 4 4 4 4 4 4 4 4 4 4 4 4 4 4 4 4 4 4 4 4 4 4 4 4 4 4 4 4
6 5 5 6 6 7 6 7 9 6 6 5 4 3 2 2 2 2 3 3 3 3 3 3 3 3 3 4 4 4 4 4 4 4 4 4 4 4 4 4 4 4 4 4 4 4 4 4 4
4 5 5 5 6 6 6 7 8 7 5 5 4 2 1 1 1 2 2 3 3 3 3 3 3 3 3 3 3 3 3 3 3 3 3 3 3 3 3 3 3 3 3 3 3 3 3 3 3
4 6 6 6 6 7 5 5 7 5 4 3 3 2 1 1 1 1 2 2 2 2 3 3 3 3 3 2 3 3 3 3 3 3 2 3 3 3 3 3 3 3 3 3 3 3 3 3 3
4 5 6 7 8 8 4 5 6 3 2 1 1 1 0 0 0 0 1 1 1 2 2 2 2 2 2 2 2 2 2 2 2 2 2 2 2 2 2 2 2 2 2 2 2 2 2 2 2
4 4 4 5 4 5 6 5 4 3 2 1 1 0 -0 -0 0 0 0 1 1 1 1 2 2 2 2 2 2 2 1 1 1 2 1 1 1 1 1 1 2 2 2 1 1 1 1 1 1
3 3 3 4 5 6 6 5 5 3 2 2 1 0 -1 -1 -0 -0 -0 0 0 0 1 1 1 1 1 1 1 1 1 1 1 1 1 1 1 1 1 1 1 1 1 1 1 1 1 1 1
1 2 2 4 4 5 6 6 3 2 2 1 -0 -1 -2 -2 -2 -1 -1 -0 -0 -0 0 0 1 1 1 1 1 1 0 0 0 0 0 0 0 0 0 -0 0 0 0 0 0 0 0 0 0
1 1 2 3 3 3 5 5 1 1 -0 -1 -1 -2 -2 -2 -2 -2 -2 -2 -1 -1 -1 -0 -0 -0 -0 -0 -0 -0 -0 -0 -0 -0 -0 -0 -0 -1 -1 -1 -1 -1 -1 -1 -0 -0 -0 -0 -0
Wind_Speed
2 1 2 2 4 4 7 5 4 3 3 1 2 2 3 3 2 1 3 3 3 5 5 5 7 8 8 9 9 9 9 10 10 10 10 11 11 11 12 12 12 12 12 13 13 13 13 13 14
0 1 2 3 6 8 6 6 6 4 2 3 2 2 2 1 2 3 2 2 3 5 5 5 7 8 8 9 9 9 9 9 10 10 10 10 11 11 11 12 12 13 12 13 13 13 13 13 14
1 1 2 3 6 8 5 4 4 3 3 3 2 1 1 0 2 2 2 4 4 5 5 5 7 8 8 9 9 9 9 9 10 10 10 10 10 10 11 11 12 12 12 12 13 13 13 12 12
3 3 2 5 9 7 5 2 3 4 4 2 2 2 2 2 1 2 4 5 6 5 5 5 7 8 8 9 8 8 9 9 9 9 10 10 10 10 11 11 12 12 11 12 12 12 12 12 11
2 3 5 8 10 6 4 2 3 4 4 4 4 3 2 3 3 3 5 5 6 5 5 5 6 7 8 9 8 9 9 8 9 9 9 9 10 10 10 11 11 11 11 11 11 11 11 11 11
3 4 7 11 10 6 5 4 4 5 4 3 4 4 2 3 3 4 5 5 5 5 5 5 6 6 7 8 8 9 9 8 8 9 9 9 9 10 10 10 10 11 11 10 10 10 11 10 10
4 5 8 9 8 8 5 4 5 6 6 4 3 4 3 3 3 4 5 5 5 4 4 5 5 5 7 8 8 9 9 8 8 8 9 9 9 9 10 10 10 10 10 10 10 10 10 10 10
3 4 7 8 9 8 4 4 3 5 4 1 2 4 2 3 4 5 5 5 4 4 3 4 4 5 5 6 7 8 8 9 9 10 10 9 9 9 9 9 9 9 9 9 9 9 9 10 9
3 6 10 9 8 6 5 5 3 1 2 2 1 1 2 5 6 7 5 5 4 3 2 3 4 4 5 5 7 8 9 10 10 9 9 7 6 7 7 8 9 8 9 9 9 9 8 9 9
5 9 11 6 5 4 5 5 4 4 4 3 2 0 3 6 7 8 7 7 6 5 3 2 3 4 4 4 5 5 6 6 6 6 6 5 5 5 5 8 8 8 8 8 8 8 6 5 5
5 8 7 5 4 4 5 4 3 6 6 6 5 4 6 7 7 8 8 7 7 6 4 3 2 3 4 3 4 3 4 4 5 5 5 5 4 4 3 4 5 5 5 5 5 5 4 4 4
5 5 4 4 3 4 5 4 4 6 5 2 3 4 7 8 8 8 8 7 6 6 5 3 3 3 3 3 3 3 3 3 3 4 4 4 3 2 2 2 2 3 3 3 3 2 3 3 3
8 5 3 3 2 2 3 5 5 6 5 2 1 5 6 7 8 7 7 6 6 6 5 4 4 4 3 3 3 3 3 3 4 4 3 3 2 2 2 2 2 2 2 2 2 2 3 3 3
5 5 4 3 3 3 4 6 5 7 4 3 3 5 6 7 7 6 6 7 7 7 6 5 4 4 4 3 3 3 3 3 3 3 3 2 2 2 2 2 2 2 1 1 2 2 2 2 2
3 4 5 5 5 3 3 7 8 7 4 4 4 5 5 5 5 6 7 7 7 7 6 5 5 4 4 4 3 3 3 3 3 3 3 2 2 2 2 2 2 2 2 2 2 2 2 2 1
4 6 7 5 4 4 6 11 5 4 5 5 4 4 4 4 5 5 5 6 6 6 6 6 4 5 4 3 3 3 3 3 2 3 3 2 2 2 2 1 2 2 2 2 2 2 2 1 1
6 8 10 6 4 4 8 10 3 3 5 5 5 4 4 3 3 3 4 5 5 6 6 6 5 5 4 4 3 2 2 2 2 2 2 2 2 2 2 1 1 2 2 2 2 2 2 2 1
8 9 9 8 3 5 8 10 6 4 5 5 5 4 4 4 4 3 3 4 4 5 6 6 5 5 4 3 2 2 2 1 1 1 1 2 2 3 2 1 2 2 2 2 2 2 1 1 1
7 9 10 6 3 5 9 11 9 5 5 6 5 5 4 4 3 2 2 2 4 4 5 6 5 5 4 4 3 3 2 2 1 1 2 2 2 3 3 2 2 2 2 3 3 2 3 2 1
8 9 9 4 2 4 7 11 8 6 6 5 5 4 4 4 3 2 1 2 3 4 5 5 6 5 5 4 3 2 2 2 2 1 1 2 3 3 3 3 3 3 2 3 4 3 2 2 2
8 10 9 6 3 3 5 8 6 5 5 4 3 3 3 3 4 3 2 3 4 4 5 5 5 5 5 5 3 2 2 1 2 2 2 3 3 4 3 4 3 3 3 4 4 4 4 3 3
8 6 7 7 6 5 4 7 5 3 3 2 2 2 3 3 3 3 2 3 4 4 4 5 5 5 5 5 5 5 4 4 3 3 3 3 4 4 4 4 4 4 4 4 4 4 4 5 4
3 2 5 7 7 6 6 6 5 2 4 4 3 3 3 3 3 3 3 3 3 3 3 4 4 5 5 5 5 6 5 4 3 3 3 3 3 4 5 5 5 4 4 4 5 5 5 5 5
2 1 1 3 5 8 9 9 6 3 4 4 4 4 4 3 3 3 3 2 2 1 2 3 4 4 4 5 5 6 6 5 4 4 4 3 3 3 5 5 5 5 5 5 5 5 6 5 6
2 2 2 3 5 6 4 7 6 2 2 3 5 5 4 3 3 3 3 3 2 1 1 2 3 4 4 5 5 5 6 6 6 6 5 4 4 4 5 5 5 5 6 6 5 5 5 6 6
5 5 4 5 6 4 3 7 3 1 2 3 3 4 3 3 3 3 3 3 3 2 2 3 3 4 4 5 5 5 5 4 4 5 5 5 5 4 5 5 6 6 6 6 6 5 6 5 6
3 4 3 3 3 5 5 4 4 2 2 2 3 3 3 3 3 3 3 3 3 3 3 3 4 4 4 5 4 5 5 5 5 5 5 4 4 4 4 5 5 6 6 6 6 5 6 6 6
2 2 3 4 5 7 6 6 4 3 3 2 3 4 4 3 3 3 3 4 4 4 4 3 3 4 4 4 4 4 5 5 4 4 5 5 4 4 5 5 5 5 6 6 6 6 6 7 7
1 2 3 3 4 5 6 4 1 2 2 2 4 4 5 5 5 5 4 4 4 4 4 4 3 3 3 3 4 4 4 4 4 5 5 5 4 5 5 5 5 6 6 6 6 7 7 8 8
3 3 4 4 5 5 6 4 3 0 1 2 4 5 5 5 5 5 5 5 5 5 5 4 4 3 3 3 3 3 4 4 4 5 5 5 5 5 5 5 5 5 6 6 7 7 7 8 9
Wind_Direction
346 283 220 215 206 219 230 218 214 190 190 182 166 198 216 225 250 49 71 114 115 140 143 147 131 123 117 112 106 99 96 93 90 89 92 89 85 83 80 77 75 76 78 78 80 82 82 79 78
288 211 206 211 225 225 224 214 213 213 152 139 167 204 211 201 36 66 107 119 136 140 139 138 129 124 119 115 111 106 101 98 95 91 91 91 88 84 83 78 76 76 78 77 78 80 81 79 77
167 241 206 202 224 232 220 194 208 188 171 180 175 207 256 70 87 101 94 137 142 136 130 127 129 126 122 119 116 112 106 102 99 94 90 91 90 86 84 81 77 77 78 79 79 78 81 79 78
191 177 199 224 225 230 235 186 162 168 177 203 193 167 145 53 47 74 117 141 144 135 127 124 131 128 122 120 118 114 113 107 103 98 93 91 93 89 84 82 79 78 79 80 81 79 79 79 80
202 199 209 225 231 224 224 225 191 195 186 188 199 210 165 104 68 101 133 142 145 138 128 120 121 128 126 121 117 115 116 111 107 102 98 93 94 93 88 84 82 79 79 80 82 81 79 77 79
176 207 223 229 227 222 222 215 207 220 206 186 201 215 162 109 110 123 139 143 141 134 126 123 113 114 125 123 116 112 111 110 107 104 100 95 95 96 92 87 84 81 79 80 80 79 79 77 77
200 210 231 233 231 229 221 198 214 220 220 211 211 199 157 141 127 138 143 141 137 130 127 123 126 120 120 120 116 112 108 108 106 105 100 96 95 95 93 89 86 84 80 77 76 75 76 76 76
209 209 228 229 231 235 203 185 221 227 229 176 205 217 185 156 142 138 138 140 133 121 120 121 127 126 124 121 113 114 110 103 99 96 92 92 93 93 90 90 85 82 80 77 75 73 74 75 73
200 220 229 224 226 225 184 196 195 195 185 172 201 327 34 125 144 143 142 149 146 130 115 115 115 116 116 116 112 112 107 102 102 99 94 99 106 103 96 84 82 80 80 78 75 73 76 77 74
201 224 231 230 226 215 189 205 189 181 206 212 211 166 112 141 157 161 167 172 174 170 160 138 124 113 117 116 120 121 119 116 114 116 113 107 104 96 94 89 86 84 80 78 74 75 79 80 79
203 229 230 225 217 214 207 208 199 211 229 236 232 201 164 165 173 180 186 186 184 179 171 163 142 132 127 125 127 121 121 119 115 115 116 113 105 102 101 104 103 98 92 85 81 81 74 73 74
204 229 230 227 214 214 215 209 210 227 245 288 238 176 167 179 188 193 195 192 187 182 180 172 160 145 138 131 130 123 122 124 119 117 116 120 115 109 102 98 100 102 98 94 90 76 76 74 80
217 220 217 217 202 212 221 229 238 244 259 283 161 166 181 190 198 201 200 195 192 190 186 182 174 162 150 142 131 129 133 135 134 132 129 127 128 126 118 106 96 97 101 107 105 97 89 82 79
213 212 226 237 233 231 234 249 239 251 255 227 201 198 200 202 203 201 201 201 199 197 194 187 184 176 165 158 149 141 139 139 142 135 138 144 136 133 135 131 121 116 113 111 121 115 107 95 91
189 216 236 235 231 223 230 247 236 245 230 221 217 214 213 215 209 212 211 207 203 199 195 190 187 182 177 170 158 145 146 149 149 141 148 146 147 152 144 152 146 143 144 133 125 117 111 102 104
199 221 237 223 220 216 230 251 240 218 213 227 229 225 224 223 220 222 222 215 205 198 195 191 186 184 183 177 164 152 155 157 158 155 158 153 148 160 157 152 160 161 158 152 148 149 139 138 144
215 233 239 232 209 215 225 254 260 217 217 233 236 232 229 234 235 235 227 216 206 200 195 190 187 185 183 174 160 151 146 156 158 160 160 163 165 173 171 162 163 172 166 167 168 172 168 164 159
226 233 237 235 211 222 234 249 251 245 237 243 244 240 238 245 252 249 233 214 202 197 193 190 185 182 171 163 156 144 131 147 150 162 162 168 172 178 174 174 186 175 178 178 178 169 160 167 161
241 237 245 247 242 241 245 256 255 256 250 251 253 252 250 254 271 265 224 195 188 190 191 191 186 181 171 175 182 183 188 188 195 197 177 178 178 181 182 190 197 192 192 192 183 168 160 159 157
232 239 249 256 251 254 261 264 260 250 242 246 251 258 259 263 271 264 219 191 193 196 198 198 192 189 189 195 197 207 198 203 208 206 203 193 193 191 196 200 202 203 199 192 187 175 181 189 191
234 236 239 244 270 230 276 263 240 238 229 239 253 261 274 274 272 263 236 218 209 208 209 206 200 195 197 194 177 157 168 184 202 219 231 215 206 201 196 205 208 205 203 201 199 198 198 199 205
242 246 238 230 236 239 240 267 246 234 223 248 290 297 296 292 290 285 264 246 229 223 216 212 207 200 198 192 188 185 200 212 222 219 226 227 212 206 201 207 207 208 213 210 207 212 215 208 207
247 272 225 225 229 245 230 247 255 206 249 273 294 301 302 300 295 297 284 266 249 228 217 215 210 206 203 202 205 207 213 218 214 212 217 224 219 211 209 212 212 212 217 218 214 211 214 215 217
156 123 148 208 217 237 230 228 255 231 249 277 285 299 312 312 305 309 320 311 268 224 206 210 213 214 211 211 215 217 218 213 210 214 219 222 229 220 216 217 220 218 219 221 220 219 218 220 224
214 200 229 218 218 236 198 223 252 254 246 267 281 293 314 324 321 322 327 323 317 289 236 217 216 221 219 219 222 225 225 220 218 219 223 225 231 233 226 226 228 227 225 224 222 224 224 224 225
221 226 231 245 249 253 209 230 233 190 280 303 306 308 327 337 335 328 320 315 311 303 269 242 233 230 226 226 230 232 230 227 229 229 229 231 235 241 237 231 232 233 230 227 225 228 228 228 228
200 217 255 248 266 261 237 239 252 226 299 322 327 335 333 321 322 326 323 320 316 307 290 257 247 247 238 233 233 234 234 233 233 238 236 238 245 247 242 235 233 234 232 229 227 229 229 229 230
288 191 191 213 239 250 249 244 242 227 267 303 328 328 329 319 319 322 332 336 329 323 314 289 257 251 251 242 237 238 239 239 237 237 236 238 241 242 238 241 234 235 234 230 229 231 231 231 232
183 190 228 229 247 247 256 250 124 203 246 301 314 327 332 331 332 332 331 333 329 329 329 319 295 277 264 257 250 244 240 240 239 238 240 241 241 235 235 237 238 234 233 232 232 233 233 233 235
242 227 209 229 235 237 256 264 90 152 314 316 315 320 323 327 332 334 334 336 337 337 335 329 318 300 282 269 257 250 244 239 237 240 243 242 242 238 235 238 238 240 239 235 232 234 235 234 235
Height
1514 1515 1516 1519 1518 1515 1513 1513 1513 1516 1518 1521 1522 1521 1519 1520 1521 1527 1527 1524 1525 1527 1530 1531 1533 1535 1536 1537 1538 1538 1539 1539 1540 1540 1541 1541 1541 1542 1542 1542 1543 1543 1543 1543 1544 1544 1544 1544 1544
1514 1515 1518 1518 1514 1513 1511 1511 1514 1516 1520 1522 1522 1522 1521 1522 1524 1524 1523 1524 1525 1527 1529 1531 1533 1534 1536 1537 1538 1538 1539 1540 1540 1541 1541 1541 1542 1542 1542 1543 1543 1543 1544 1544 1544 1544 1545 1545 1545
1514 1515 1518 1515 1512 1508 1508 1512 1515 1519 1522 1522 1522 1522 1523 1524 1524 1523 1523 1524 1526 1528 1530 1531 1533 1534 1535 1536 1537 1538 1539 1540 1540 1541 1541 1542 1542 1543 1543 1543 1543 1544 1544 1544 1545 1545 1545 1546 1546
1514 1517 1517 1513 1510 1510 1510 1513 1517 1519 1521 1522 1522 1522 1523 1523 1523 1523 1522 1524 1526 1528 1530 1531 1533 1534 1535 1536 1537 1538 1539 1540 1540 1541 1541 1542 1542 1543 1543 1543 1544 1544 1545 1545 1545 1545 1546 1546 1546
1514 1515 1513 1511 1510 1512 1514 1517 1518 1518 1519 1521 1522 1521 1522 1522 1521 1522 1523 1524 1526 1528 1529 1531 1532 1534 1535 1536 1537 1537 1538 1539 1540 1541 1541 1542 1542 1543 1543 1544 1544 1544 1545 1545 1545 1546 1546 1546 1547
1514 1512 1509 1507 1508 1512 1515 1518 1518 1518 1519 1520 1521 1521 1521 1521 1521 1521 1522 1524 1526 1527 1529 1530 1532 1533 1534 1535 1536 1537 1538 1539 1539 1540 1541 1542 1542 1543 1543 1544 1544 1545 1545 1545 1545 1546 1546 1546 1547
1513 1510 1506 1505 1507 1510 1514 1517 1518 1517 1517 1520 1520 1520 1520 1520 1520 1521 1522 1523 1525 1527 1528 1530 1531 1532 1534 1534 1535 1536 1537 1538 1539 1540 1541 1541 1542 1543 1543 1544 1544 1545 1545 1545 1545 1546 1546 1547 1547
1510 1510 1508 1507 1507 1509 1514 1516 1517 1517 1517 1519 1520 1519 1519 1519 1519 1520 1521 1522 1524 1526 1527 1529 1530 1531 1533 1533 1534 1535 1536 1537 1538 1539 1540 1541 1541 1542 1543 1543 1544 1544 1545 1545 1545 1546 1546 1546 1547
1510 1510 1504 1505 1506 1508 1513 1515 1516 1516 1517 1518 1518 1518 1518 1517 1518 1519 1520 1521 1522 1524 1526 1527 1528 1530 1531 1532 1533 1534 1535 1536 1537 1538 1539 1540 1541 1541 1542 1542 1543 1544 1544 1545 1545 1545 1546 1546 1547
1508 1504 1502 1506 1507 1509 1512 1513 1515 1516 1516 1517 1516 1516 1516 1516 1516 1517 1518 1519 1520 1522 1524 1525 1527 1528 1529 1530 1531 1533 1534 1535 1536 1537 1538 1538 1539 1540 1541 1542 1542 1543 1543 1544 1544 1545 1545 1545 1546
1506 1503 1505 1508 1509 1510 1511 1513 1514 1514 1513 1514 1514 1514 1514 1514 1515 1516 1516 1518 1519 1520 1522 1523 1525 1526 1528 1529 1530 1531 1532 1534 1534 1535 1536 1537 1538 1539 1540 1540 1541 1541 1542 1543 1543 1544 1544 1544 1545
1506 1507 1508 1508 1510 1510 1511 1512 1513 1512 1512 1512 1512 1512 1512 1512 1513 1513 1514 1516 1517 1519 1520 1522 1523 1524 1526 1527 1528 1529 1531 1532 1533 1534 1535 1535 1536 1537 1538 1539 1539 1540 1540 1541 1542 1542 1543 1543 1544
1505 1507 1508 1509 1510 1510 1511 1511 1511 1511 1511 1510 1510 1510 1510 1511 1511 1512 1513 1514 1515 1516 1518 1519 1521 1523 1524 1525 1526 1527 1529 1530 1531 1532 1533 1534 1534 1535 1536 1537 1538 1538 1539 1539 1540 1541 1541 1542 1542
1504 1506 1508 1508 1509 1510 1510 1510 1510 1507 1509 1508 1508 1508 1508 1508 1509 1510 1510 1511 1512 1514 1515 1517 1519 1520 1522 1523 1524 1525 1527 1528 1529 1530 1531 1532 1533 1533 1534 1535 1535 1536 1537 1537 1538 1539 1539 1540 1541
1505 1506 1506 1506 1507 1508 1509 1506 1506 1506 1507 1507 1506 1506 1506 1506 1507 1507 1508 1508 1510 1511 1513 1515 1516 1518 1519 1521 1522 1523 1524 1525 1527 1528 1529 1530 1530 1531 1531 1532 1533 1534 1535 1535 1536 1537 1538 1538 1539
1504 1502 1499 1502 1506 1507 1509 1496 1501 1504 1504 1504 1504 1504 1504 1504 1504 1505 1505 1506 1507 1509 1510 1512 1514 1515 1517 1518 1519 1521 1522 1523 1524 1525 1526 1527 1528 1529 1529 1530 1531 1532 1532 1533 1534 1535 1535 1536 1537
1498 1494 1493 1499 1503 1504 1503 1495 1500 1502 1502 1502 1502 1502 1502 1501 1502 1502 1502 1503 1505 1506 1507 1509 1511 1512 1514 1516 1517 1518 1519 1521 1522 1523 1524 1524 1525 1526 1527 1527 1528 1529 1530 1531 1531 1532 1533 1534 1534
1491 1490 1492 1495 1501 1502 1500 1496 1498 1500 1501 1500 1500 1500 1500 1499 1499 1500 1500 1501 1502 1503 1505 1506 1508 1509 1511 1513 1514 1515 1517 1518 1518 1519 1520 1521 1522 1523 1524 1525 1526 1526 1527 1528 1529 1530 1530 1531 1532
1492 1491 1491 1494 1501 1501 1497 1495 1495 1497 1498 1498 1498 1498 1497 1497 1497 1497 1497 1498 1499 1501 1502 1504 1505 1507 1508 1509 1510 1512 1513 1514 1515 1516 1517 1518 1519 1520 1521 1522 1523 1524 1524 1525 1526 1527 1528 1529 1530
1494 1493 1492 1498 1502 1501 1497 1493 1493 1495 1495 1496 1496 1496 1495 1495 1495 1495 1495 1495 1496 1497 1499 1501 1502 1503 1505 1506 1507 1509 1510 1511 1512 1513 1514 1515 1516 1517 1518 1519 1520 1521 1521 1522 1523 1524 1525 1526 1527
1493 1492 1492 1496 1501 1502 1499 1487 1488 1491 1493 1494 1494 1494 1494 1493 1493 1493 1492 1493 1493 1494 1496 1497 1499 1500 1502 1503 1504 1506 1507 1508 1509 1509 1510 1511 1513 1514 1515 1516 1516 1517 1518 1519 1520 1521 1522 1523 1524
1490 1494 1495 1497 1495 1492 1496 1482 1480 1487 1490 1492 1492 1492 1492 1492 1491 1491 1491 1491 1491 1492 1493 1494 1496 1497 1499 1500 1501 1502 1503 1503 1504 1506 1507 1508 1509 1510 1511 1512 1513 1514 1515 1516 1517 1518 1519 1520 1521
1495 1498 1497 1496 1494 1494 1494 1491 1476 1487 1487 1488 1490 1491 1490 1490 1489 1489 1489 1489 1489 1490 1491 1492 1493 1494 1495 1496 1498 1499 1500 1500 1501 1502 1503 1504 1505 1506 1507 1508 1509 1510 1511 1512 1513 1514 1515 1516 1517
1499 1499 1498 1497 1493 1490 1487 1487 1474 1482 1485 1487 1489 1489 1488 1488 1488 1487 1487 1487 1487 1487 1488 1489 1490 1491 1492 1493 1494 1495 1496 1497 1498 1498 1499 1500 1500 1501 1503 1504 1505 1506 1507 1508 1509 1510 1511 1512 1513
1498 1494 1489 1487 1485 1478 1490 1488 1479 1484 1488 1488 1488 1488 1487 1487 1486 1486 1485 1485 1485 1485 1485 1486 1486 1487 1488 1489 1490 1491 1492 1493 1494 1494 1495 1496 1496 1497 1498 1499 1500 1502 1503 1504 1505 1506 1506 1507 1508
1496 1493 1487 1481 1473 1472 1491 1483 1480 1487 1489 1489 1489 1488 1486 1486 1485 1484 1484 1483 1483 1483 1483 1483 1483 1484 1484 1485 1486 1487 1488 1489 1489 1490 1491 1492 1492 1492 1493 1495 1496 1497 1498 1499 1500 1501 1502 1502 1503
1495 1493 1495 1491 1491 1484 1476 1481 1484 1487 1487 1488 1487 1486 1485 1484 1484 1483 1483 1482 1481 1481 1481 1480 1480 1481 1481 1481 1482 1483 1483 1484 1485 1486 1487 1487 1488 1488 1489 1490 1491 1492 1493 1494 1495 1496 1496 1497 1498
1498 1495 1495 1490 1482 1474 1470 1474 1474 1483 1484 1485 1485 1485 1484 1483 1483 1482 1481 1480 1480 1479 1478 1478 1478 1477 1478 1478 1478 1479 1479 1480 1480 1481 1482 1482 1483 1483 1484 1485 1486 1487 1488 1489 1490 1490 1491 1492 1493
1500 1500 1495 1489 1486 1476 1469 1470 1480 1483 1484 1485 1485 1485 1484 1482 1481 1480 1479 1478 1478 1477 1476 1475 1474 1474 1474 1474 1475 1475 1475 1476 1476 1477 1477 1478 1478 1479 1479 1480 1481 1482 1483 1484 1484 1485 1486 1487 1488
1500 1498 1496 1490 1488 1487 1475 1476 1484 1485 1486 1486 1485 1484 1483 1481 1480 1479 1477 1476 1475 1474 1473 1472 1471 1471 1471 1471 1471 1471 1472 1472 1472 1472 1473 1473 1473 1473 1474 1475 1475 1476 1477 1478 1479 1479 1480 1481 1482